White Mountain, AK

2:37 PM AKDT on March 30, 2017 (GMT -0800)
White Mountain

Weather History for PAWM - September, 2013

Change the Weather History Date:

Tuesday, September 3, 2013

  Actual Average (PAOM) Record (PAOM)
Temperature  
Mean Temperature 52 °F -  
Max Temperature 57 °F 53 °F 69 °F (1991)
Min Temperature 48 °F 38 °F 25 °F (1930)
Degree Days  
Heating Degree Days 12    
Growing Degree Days 2 (Base 50)    
Moisture  
Dew Point -5 °F    
Average Humidity 9    
Maximum Humidity 10    
Minimum Humidity 8    
Precipitation  
Precipitation 0.12 in - - ()
Sea Level Pressure  
Sea Level Pressure 29.13 in    
Wind  
Wind Speed 7 mph (ESE)    
Max Wind Speed 10 mph    
Max Gust Speed -    
Visibility 8 miles    
Events Rain    
Averages and records for this station are not official NWS values.
T = Trace of Precipitation, MM = Missing Value Source: NWS Daily Summary

Daily Weather History Graph

Daily Weather History Graph

Search for Another Location

Airport or City:

Trip Planner

Search our weather history database for the weather conditions in past years. The results will help you decide how hot, cold, wet, or windy it might be!

Date:

Astronomy

Sep. 03, 2013 Rise Set
Actual Time 7:41 AM AKDT 10:02 PM AKDT
Civil Twilight 6:47 AM AKDT 10:55 PM AKDT
Nautical Twilight 5:33 AM AKDT 12:07 AM AKDT
Astronomical Twilight 3:25 AM AKDT 2:19 AM AKDT
Moon 5:52 AM AKDT (9/3) 8:57 PM AKDT (9/3)
Length of Visible Light 16h 07m
Length of Day
14h 20m
Waning Crescent, 3% of the Moon is Illuminated
Sep 3
Waning Crescent
Sep 5
New
Sep 12
First Quarter
Sep 19
Full
Sep 26
Last Quarter

Hourly Weather History & Observations

Time (AKDT) Temp. Dew Point Humidity Pressure Visibility Wind Dir Wind Speed Gust Speed Precip Events Conditions
12:58 AM 52.0 °F -6.0 °F 9% 29.14 in 10.0 mi ESE 5.8 mph - N/A   Overcast
1:58 AM 52.0 °F -5.1 °F 9% 29.15 in 8.0 mi ESE 4.6 mph - 0.00 in   Overcast
2:58 AM 51.1 °F -6.0 °F 9% 29.16 in 5.0 mi SE 8.1 mph - 0.00 in Rain Light Rain
3:02 AM 51.8 °F -7.6 °F 8% 29.12 in 4.0 mi SE 8.1 mph - 0.01 in Rain Light Rain
3:58 AM 50.0 °F -8.0 °F 9% 29.15 in 8.0 mi East 5.8 mph - 0.07 in   Overcast
4:53 AM 50.0 °F -7.6 °F 9% 29.11 in 3.0 mi East 5.8 mph - 0.03 in Rain Light Rain
4:58 AM 50.0 °F -8.0 °F 9% 29.15 in 3.0 mi East 5.8 mph - 0.03 in   Haze
5:58 AM 48.9 °F -9.0 °F 9% 29.14 in 10.0 mi East 5.8 mph - 0.00 in Rain Light Rain
6:27 AM 48.2 °F -9.4 °F 9% 29.11 in 10.0 mi ENE 4.6 mph - 0.01 in Rain Light Rain
6:42 AM 50.0 °F -9.4 °F 8% 29.11 in 10.0 mi East 8.1 mph - 0.01 in   Overcast
6:50 AM 50.0 °F -7.6 °F 9% 29.11 in 8.0 mi East 6.9 mph - 0.01 in   Overcast
6:58 AM 50.0 °F -8.0 °F 9% 29.15 in 7.0 mi ESE 6.9 mph - 0.01 in   Overcast
7:38 AM 51.8 °F -7.6 °F 8% 29.11 in 9.0 mi SE 8.1 mph - 0.00 in   Overcast
7:47 AM 51.8 °F -7.6 °F 8% 29.11 in 9.0 mi SE 9.2 mph - 0.00 in   Overcast
7:57 AM 51.1 °F -7.1 °F 9% 29.14 in 8.0 mi SE 8.1 mph - 0.00 in   Overcast
8:56 AM 51.8 °F -7.6 °F 8% 29.11 in 6.0 mi SE 6.9 mph - 0.01 in Rain Light Rain
8:58 AM 51.1 °F -7.1 °F 9% 29.15 in 6.0 mi ESE 6.9 mph - 0.01 in Rain Light Rain
9:03 AM 51.8 °F -7.6 °F 8% 29.11 in 6.0 mi ESE 6.9 mph - 0.00 in Rain Light Rain
9:09 AM 51.8 °F -7.6 °F 8% 29.11 in 5.0 mi SE 8.1 mph - 0.00 in Rain Light Rain
9:16 AM 51.8 °F -7.6 °F 8% 29.11 in 5.0 mi SE 8.1 mph - 0.00 in Rain Light Rain
9:31 AM 51.8 °F -7.6 °F 8% 29.11 in 5.0 mi SE 8.1 mph - 0.00 in Rain Light Rain
9:58 AM 52.0 °F -6.0 °F 9% 29.15 in 5.0 mi SE 6.9 mph - 0.00 in   Haze
10:58 AM 52.0 °F -4.0 °F 10% 29.15 in 8.0 mi SE 8.1 mph - N/A   Mostly Cloudy
11:02 AM 51.8 °F -4.0 °F 10% 29.12 in 8.0 mi SE 5.8 mph - N/A   Mostly Cloudy
11:58 AM 52.0 °F -5.1 °F 9% 29.16 in 8.0 mi ESE 8.1 mph - N/A   Overcast
12:02 PM 51.8 °F -5.8 °F 9% 29.12 in 9.0 mi ESE 5.8 mph - N/A   Overcast
12:30 PM 53.6 °F -2.2 °F 10% 29.12 in 9.0 mi ESE 5.8 mph - N/A   Overcast
12:58 PM 53.1 °F -4.0 °F 10% 29.16 in 9.0 mi SE 6.9 mph - N/A   Overcast
1:32 PM 53.6 °F -4.0 °F 9% 29.12 in 8.0 mi SE 8.1 mph - N/A   Overcast
1:58 PM 53.1 °F -2.9 °F 10% 29.16 in 9.0 mi East 4.6 mph - N/A   Overcast
2:14 PM 55.4 °F -2.2 °F 9% 29.12 in 9.0 mi ESE 8.1 mph - N/A   Overcast
2:26 PM 55.4 °F -0.4 °F 10% 29.12 in 9.0 mi ESE 6.9 mph - N/A   Mostly Cloudy
2:30 PM 55.4 °F -0.4 °F 10% 29.12 in 9.0 mi SE 9.2 mph - N/A   Mostly Cloudy
2:58 PM 54.0 °F -2.9 °F 10% 29.15 in 9.0 mi ESE 6.9 mph - N/A   Overcast
3:37 PM 55.4 °F -2.2 °F 9% 29.12 in 10.0 mi East 6.9 mph - 0.00 in   Overcast
3:58 PM 55.0 °F -0.9 °F 10% 29.14 in 9.0 mi ESE 4.6 mph - 0.00 in   Overcast
4:24 PM 55.4 °F -0.4 °F 10% 29.11 in 9.0 mi SE 6.9 mph - N/A   Overcast
4:32 PM 53.6 °F -2.2 °F 10% 29.11 in 9.0 mi ESE 3.5 mph - N/A   Overcast
4:58 PM 55.0 °F -2.0 °F 10% 29.14 in 9.0 mi SSE 3.5 mph - N/A   Overcast
5:58 PM 57.0 °F 1.0 °F 10% 29.13 in 9.0 mi SE 9.2 mph - N/A   Mostly Cloudy
6:58 PM 57.0 °F 1.0 °F 10% 29.13 in 10.0 mi SE 10.4 mph - N/A   Overcast
7:58 PM 55.0 °F -2.0 °F 10% 29.13 in 10.0 mi SE 4.6 mph - N/A   Overcast
8:58 PM 52.0 °F -6.0 °F 9% 29.14 in 9.0 mi East 8.1 mph - 0.00 in Rain Light Rain
9:58 PM 51.1 °F -8.0 °F 9% 29.15 in 9.0 mi ESE 9.2 mph - 0.00 in Rain Light Rain
10:58 PM 50.0 °F -9.0 °F 8% 29.16 in 9.0 mi ESE 10.4 mph - 0.00 in Rain Light Rain
11:58 PM 50.0 °F -9.9 °F 8% 29.17 in 10.0 mi ESE 6.9 mph - 0.00 in Rain Light Rain